This is the latest recevied weather packets stored in our database for station/object W0CHP-13. If no packets are shown the sender has not sent any weather packets the latest 1 day(s).
| Time | Temp. | Humidity | Pressure | Rain* | Wind** | Luminosity | Snow |
|---|---|---|---|---|---|---|---|
| 1778032399 | 10° C | 36% | 1009.2 hPa | 0 mm | 0 m/s | 0 W/m² | - |
| 1778031797 | 10.56° C | 35% | 1008.9 hPa | 0 mm | 0.45 m/s, 307° | 0 W/m² | - |
| 1778031195 | 10.56° C | 35% | 1008.9 hPa | 0 mm | 0.45 m/s, 32° | 0 W/m² | - |
| 1778030598 | 10.56° C | 35% | 1008.9 hPa | 0 mm | 0 m/s | 1 W/m² | - |
| 1778029995 | 10.56° C | 34% | 1008.9 hPa | 0 mm | 0.45 m/s, 289° | 2 W/m² | - |
| 1778029397 | 10.56° C | 35% | 1008.7 hPa | 0 mm | 0 m/s | 6 W/m² | - |
| 1778028795 | 10.56° C | 35% | 1008.5 hPa | 0 mm | 0.45 m/s, 304° | 10 W/m² | - |
| 1778028198 | 10.56° C | 34% | 1008.7 hPa | 0 mm | 0 m/s | 14 W/m² | - |
| 1778027596 | 11.11° C | 34% | 1008.5 hPa | 0 mm | 0.45 m/s, 178° | 18 W/m² | - |
| 1778026998 | 11.11° C | 34% | 1008.5 hPa | 0 mm | 0.89 m/s, 254° | 26 W/m² | - |
| 1778026396 | 11.67° C | 33% | 1008.5 hPa | 0 mm | 0.89 m/s, 313° | 40 W/m² | - |
| 1778025798 | 11.67° C | 32% | 1008.5 hPa | 0 mm | 0.89 m/s, 201° | 43 W/m² | - |
| 1778025197 | 11.67° C | 31% | 1008.5 hPa | 0 mm | 0.89 m/s, 351° | 104 W/m² | - |
| 1778024595 | 11.67° C | 32% | 1008.5 hPa | 0 mm | 0.89 m/s, 274° | 106 W/m² | - |
| 1778023997 | 11.67° C | 33% | 1008.4 hPa | 0 mm | 1.34 m/s, 81° | 65 W/m² | - |
| 1778023395 | 11.67° C | 30% | 1008.5 hPa | 0 mm | 1.79 m/s, 270° | 61 W/m² | - |
| 1778022797 | 12.22° C | 30% | 1008.5 hPa | 0 mm | 0.89 m/s, 262° | 79 W/m² | - |
| 1778022195 | 12.22° C | 30% | 1008.5 hPa | 0 mm | 0.89 m/s, 310° | 104 W/m² | - |
| 1778021598 | 12.78° C | 29% | 1008.5 hPa | 0 mm | 0.45 m/s, 242° | 110 W/m² | - |
| 1778020996 | 12.78° C | 29% | 1008.5 hPa | 0 mm | 0.89 m/s, 303° | 125 W/m² | - |
| 1778020398 | 12.78° C | 28% | 1008.5 hPa | 0 mm | 0.89 m/s, 315° | 150 W/m² | - |
| 1778019796 | 12.78° C | 28% | 1008.5 hPa | 0 mm | 1.79 m/s, 301° | 136 W/m² | - |
| 1778019198 | 12.78° C | 28% | 1008.5 hPa | 0 mm | 0.89 m/s, 30° | 139 W/m² | - |
| 1778018596 | 12.78° C | 27% | 1008.2 hPa | 0 mm | 0.89 m/s, 301° | 122 W/m² | - |
| 1778017998 | 12.78° C | 26% | 1008.5 hPa | 0 mm | 0.45 m/s, 10° | 142 W/m² | - |
* Rain latest hour (hover to see other rain measurements)
** Current wind speed in m/s (hover to see current wind gust speed)